| time (UTC) | temp C | wind direction | speed KPH | gust KPH | rain 1hr cm | rain 24hr cm | rain mn cm | humidity % | barometer mb |
| 20260906131015 | 19 | 119 | 1.6 | 6.4 | 0.00 | 0.00 | 0.00 | 91 | 1021.0 |
| 20260906130508 | 19 | 113 | 1.6 | 8.0 | 0.00 | 0.00 | 0.00 | 92 | 1020.9 |
| 20260906130028 | 18 | 5 | 1.6 | 8.0 | 0.00 | 0.00 | 0.00 | 93 | 1020.7 |
| 20260906125510 | 18 | 163 | 1.6 | 4.8 | 0.00 | 0.00 | 0.00 | 93 | 1020.7 |
| 20260906125014 | 18 | 15 | 1.6 | 4.8 | 0.00 | 0.00 | 0.00 | 94 | 1020.6 |
| 20260906124505 | 18 | 209 | 0.0 | 3.2 | 0.00 | 0.00 | 0.00 | 94 | 1020.5 |
| 20260906124003 | 18 | 344 | 1.6 | 4.8 | 0.00 | 0.00 | 0.00 | 94 | 1020.4 |
| 20260906123502 | 18 | 167 | 1.6 | 4.8 | 0.00 | 0.00 | 0.00 | 94 | 1020.3 |
| 20260906123006 | 18 | 132 | 0.0 | 3.2 | 0.00 | 0.00 | 0.00 | 94 | 1020.2 |
| 20260906122504 | 17 | 254 | 0.0 | 3.2 | 0.00 | 0.00 | 0.00 | 94 | 1020.1 |
| 20260906122004 | 17 | 34 | 0.0 | 3.2 | 0.00 | 0.00 | 0.00 | 94 | 1020.2 |
| 20260906121510 | 17 | 48 | 0.0 | 3.2 | 0.00 | 0.00 | 0.00 | 94 | 1020.3 |
| 20260906121003 | 17 | 14 | 1.6 | 3.2 | 0.00 | 0.00 | 0.00 | 94 | 1020.3 |
| 20260906120506 | 17 | 25 | 0.0 | 3.2 | 0.00 | 0.00 | 0.00 | 94 | 1020.3 |
| 20260906120017 | 17 | 22 | 1.6 | 3.2 | 0.00 | 0.00 | 0.00 | 94 | 1020.2 |
| 20260906115509 | 17 | 19 | 1.6 | 3.2 | 0.00 | 0.00 | 0.00 | 94 | 1020.1 |
| 20260906115009 | 17 | 28 | 1.6 | 3.2 | 0.00 | 0.00 | 0.00 | 94 | 1020.0 |
| 20260906114525 | 17 | 55 | 0.0 | 3.2 | 0.00 | 0.00 | 0.00 | 94 | 1019.9 |
| 20260906114013 | 17 | 55 | 0.0 | 3.2 | 0.00 | 0.00 | 0.00 | 94 | 1019.8 |
| 20260906113502 | 17 | 80 | 0.0 | 3.2 | 0.00 | 0.00 | 0.00 | 94 | 1019.7 |
| 20260906113008 | 17 | 149 | 0.0 | 3.2 | 0.00 | 0.00 | 0.00 | 94 | 1019.6 |
| 20260906112505 | 17 | 149 | 0.0 | 3.2 | 0.00 | 0.00 | 0.00 | 93 | 1019.5 |
| 20260906112003 | 17 | 151 | 0.0 | 3.2 | 0.00 | 0.00 | 0.00 | 93 | 1019.5 |
| 20260906111509 | 17 | 151 | 0.0 | 3.2 | 0.00 | 0.00 | 0.00 | 93 | 1019.5 |
| 20260906111003 | 17 | 34 | 0.0 | 3.2 | 0.00 | 0.00 | 0.00 | 94 | 1019.4 |
| 20260906110507 | 17 | 17 | 1.6 | 3.2 | 0.00 | 0.00 | 0.00 | 94 | 1019.5 |
| 20260906110016 | 17 | 22 | 0.0 | 3.2 | 0.00 | 0.00 | 0.00 | 93 | 1019.4 |
| 20260906105508 | 17 | 360 | 0.0 | 3.2 | 0.00 | 0.00 | 0.00 | 93 | 1019.3 |
| 20260906105012 | 17 | 24 | 0.0 | 3.2 | 0.00 | 0.00 | 0.00 | 93 | 1019.3 |
| 20260906104538 | 16 | 9 | 0.0 | 3.2 | 0.00 | 0.00 | 0.00 | 93 | 1019.4 |
| 20260906104011 | 16 | 9 | 0.0 | 3.2 | 0.00 | 0.00 | 0.00 | 93 | 1019.3 |
| 20260906103512 | 16 | 9 | 0.0 | 3.2 | 0.00 | 0.00 | 0.00 | 93 | 1019.3 |
| 20260906103041 | 16 | 9 | 0.0 | 1.6 | 0.00 | 0.00 | 0.00 | 92 | 1019.3 |
| 20260906102504 | 16 | 9 | 0.0 | 1.6 | 0.00 | 0.00 | 0.00 | 92 | 1019.3 |
| 20260906102006 | 16 | 9 | 0.0 | 1.6 | 0.00 | 0.00 | 0.00 | 92 | 1019.3 |
| 20260906101508 | 16 | 9 | 0.0 | 0.0 | 0.00 | 0.00 | 0.00 | 92 | 1019.4 |
| 20260906101003 | 16 | 9 | 0.0 | 0.0 | 0.00 | 0.00 | 0.00 | 92 | 1019.4 |
| 20260906100503 | 16 | 9 | 0.0 | 0.0 | 0.00 | 0.00 | 0.00 | 91 | 1019.3 |
| 20260906100023 | 16 | 9 | 0.0 | 3.2 | 0.00 | 0.00 | 0.00 | 91 | 1019.3 |
| 20260906095504 | 17 | 9 | 0.0 | 3.2 | 0.00 | 0.00 | 0.00 | 92 | 1019.3 |
| 20260906095011 | 17 | 9 | 0.0 | 3.2 | 0.00 | 0.00 | 0.00 | 92 | 1019.2 |
| 20260906094522 | 17 | 9 | 0.0 | 3.2 | 0.00 | 0.00 | 0.00 | 92 | 1019.2 |
| 20260906094009 | 17 | 9 | 1.6 | 3.2 | 0.00 | 0.00 | 0.00 | 92 | 1019.3 |
| 20260906093512 | 17 | 19 | 0.0 | 3.2 | 0.00 | 0.00 | 0.00 | 92 | 1019.2 |
| 20260906093037 | 17 | 19 | 1.6 | 3.2 | 0.00 | 0.00 | 0.00 | 92 | 1019.3 |
| 20260906092512 | 17 | 30 | 1.6 | 3.2 | 0.00 | 0.00 | 0.00 | 92 | 1019.2 |
| 20260906092013 | 17 | 5 | 0.0 | 3.2 | 0.00 | 0.00 | 0.00 | 92 | 1019.1 |
| 20260906091519 | 17 | 5 | 0.0 | 3.2 | 0.00 | 0.00 | 0.00 | 92 | 1019.0 |
| 20260906091004 | 17 | 5 | 0.0 | 3.2 | 0.00 | 0.00 | 0.00 | 92 | 1018.9 |
| 20260906090503 | 17 | 352 | 1.6 | 3.2 | 0.00 | 0.00 | 0.00 | 92 | 1018.9 |
| 20260906090016 | 17 | 5 | 1.6 | 3.2 | 0.00 | 0.00 | 0.00 | 92 | 1019.0 |
| 20260906085506 | 17 | 18 | 0.0 | 3.2 | 0.00 | 0.00 | 0.00 | 92 | 1019.1 |
| 20260906085008 | 17 | 18 | 0.0 | 3.2 | 0.00 | 0.00 | 0.00 | 92 | 1019.2 |
| 20260906084516 | 17 | 18 | 1.6 | 3.2 | 0.00 | 0.00 | 0.00 | 92 | 1019.1 |
| 20260906084010 | 17 | 351 | 1.6 | 3.2 | 0.00 | 0.00 | 0.00 | 92 | 1019.1 |
| 20260906083510 | 17 | 16 | 1.6 | 3.2 | 0.00 | 0.00 | 0.00 | 92 | 1019.1 |
| 20260906083026 | 17 | 19 | 1.6 | 3.2 | 0.00 | 0.00 | 0.00 | 92 | 1019.1 |
| 20260906082513 | 17 | 22 | 1.6 | 3.2 | 0.00 | 0.00 | 0.00 | 92 | 1019.2 |
| 20260906082013 | 17 | 21 | 1.6 | 3.2 | 0.00 | 0.00 | 0.00 | 91 | 1019.2 |
| 20260906081526 | 17 | 360 | 1.6 | 3.2 | 0.00 | 0.00 | 0.00 | 91 | 1019.1 |
| 20260906081012 | 17 | 5 | 0.0 | 3.2 | 0.00 | 0.00 | 0.00 | 91 | 1019.0 |
| 20260906080503 | 17 | 5 | 1.6 | 3.2 | 0.00 | 0.00 | 0.00 | 91 | 1018.9 |
| 20260906080010 | 17 | 351 | 1.6 | 3.2 | 0.00 | 0.00 | 0.00 | 91 | 1019.0 |
| 20260906075503 | 17 | 329 | 0.0 | 3.2 | 0.00 | 0.00 | 0.00 | 91 | 1019.0 |
| 20260906075006 | 17 | 329 | 0.0 | 3.2 | 0.00 | 0.00 | 0.00 | 91 | 1019.1 |
| 20260906074514 | 17 | 9 | 0.0 | 3.2 | 0.00 | 0.00 | 0.00 | 91 | 1019.0 |
| 20260906074008 | 17 | 9 | 1.6 | 3.2 | 0.00 | 0.00 | 0.00 | 91 | 1018.9 |
| 20260906073509 | 17 | 352 | 1.6 | 3.2 | 0.00 | 0.00 | 0.00 | 91 | 1019.0 |
| 20260906073024 | 17 | 349 | 1.6 | 3.2 | 0.00 | 0.00 | 0.00 | 92 | 1018.9 |
| 20260906072509 | 17 | 19 | 1.6 | 3.2 | 0.00 | 0.00 | 0.00 | 92 | 1018.9 |
| 20260906072009 | 17 | 352 | 1.6 | 3.2 | 0.00 | 0.00 | 0.00 | 92 | 1018.9 |
| 20260906071530 | 17 | 13 | 1.6 | 3.2 | 0.00 | 0.00 | 0.00 | 92 | 1018.9 |
| 20260906071012 | 17 | 17 | 1.6 | 3.2 | 0.00 | 0.00 | 0.00 | 91 | 1019.0 |
| 20260906070513 | 17 | 19 | 1.6 | 3.2 | 0.00 | 0.00 | 0.00 | 92 | 1019.0 |
| 20260906070029 | 17 | 352 | 0.0 | 3.2 | 0.00 | 0.00 | 0.00 | 92 | 1018.9 |
| 20260906065505 | 17 | 352 | 0.0 | 3.2 | 0.00 | 0.00 | 0.00 | 92 | 1018.9 |
| 20260906065006 | 17 | 352 | 0.0 | 3.2 | 0.00 | 0.00 | 0.00 | 92 | 1019.0 |
| 20260906064514 | 17 | 5 | 1.6 | 3.2 | 0.00 | 0.00 | 0.00 | 92 | 1019.1 |
| 20260906064011 | 17 | 342 | 0.0 | 3.2 | 0.00 | 0.00 | 0.00 | 92 | 1019.0 |
| 20260906063508 | 17 | 342 | 0.0 | 3.2 | 0.00 | 0.00 | 0.00 | 92 | 1019.0 |
| 20260906063019 | 17 | 352 | 0.0 | 3.2 | 0.00 | 0.00 | 0.00 | 92 | 1019.1 |
| 20260906062511 | 17 | 352 | 0.0 | 3.2 | 0.00 | 0.00 | 0.00 | 91 | 1019.1 |
| 20260906062012 | 17 | 360 | 1.6 | 3.2 | 0.00 | 0.00 | 0.00 | 91 | 1019.1 |
| 20260906061527 | 17 | 15 | 0.0 | 3.2 | 0.00 | 0.00 | 0.00 | 91 | 1019.1 |
| 20260906061012 | 17 | 17 | 1.6 | 3.2 | 0.00 | 0.00 | 0.00 | 91 | 1018.9 |
| 20260906060514 | 17 | 17 | 0.0 | 1.6 | 0.00 | 0.00 | 0.00 | 90 | 1018.9 |
| 20260906060033 | 17 | 17 | 0.0 | 3.2 | 0.00 | 0.00 | 0.00 | 90 | 1019.0 |
| 20260906055515 | 17 | 17 | 0.0 | 3.2 | 0.00 | 0.00 | 0.00 | 90 | 1018.9 |
| 20260906055017 | 17 | 17 | 0.0 | 3.2 | 0.00 | 0.00 | 0.00 | 90 | 1018.9 |
| 20260906054513 | 17 | 5 | 0.0 | 3.2 | 0.00 | 0.00 | 0.00 | 90 | 1018.9 |
| 20260906054007 | 17 | 5 | 0.0 | 3.2 | 0.00 | 0.00 | 0.00 | 90 | 1018.9 |
| 20260906053507 | 17 | 5 | 0.0 | 3.2 | 0.00 | 0.00 | 0.00 | 90 | 1019.0 |
| 20260906053020 | 17 | 5 | 0.0 | 3.2 | 0.00 | 0.00 | 0.00 | 90 | 1019.0 |
| 20260906052508 | 17 | 9 | 0.0 | 3.2 | 0.00 | 0.00 | 0.00 | 90 | 1018.9 |
| 20260906052010 | 17 | 9 | 0.0 | 3.2 | 0.00 | 0.00 | 0.00 | 90 | 1018.9 |
| 20260906051532 | 17 | 9 | 0.0 | 3.2 | 0.00 | 0.00 | 0.00 | 89 | 1018.9 |
| 20260906051010 | 17 | 9 | 1.6 | 1.6 | 0.00 | 0.00 | 0.00 | 89 | 1018.8 |
| 20260906050511 | 18 | 9 | 1.6 | 3.2 | 0.00 | 0.00 | 0.00 | 89 | 1018.7 |
| 20260906050038 | 18 | 24 | 1.6 | 3.2 | 0.00 | 0.00 | 0.00 | 89 | 1018.6 |
| 20260906045512 | 18 | 9 | 1.6 | 3.2 | 0.00 | 0.00 | 0.00 | 89 | 1018.7 |
| 20260906045016 | 18 | 58 | 0.0 | 4.8 | 0.00 | 0.00 | 0.00 | 89 | 1018.7 |
| 20260906044530 | 18 | 9 | 1.6 | 4.8 | 0.00 | 0.00 | 0.00 | 89 | 1018.6 |
| 20260906044017 | 18 | 28 | 1.6 | 4.8 | 0.00 | 0.00 | 0.00 | 89 | 1018.6 |
| 20260906043506 | 18 | 24 | 1.6 | 4.8 | 0.00 | 0.00 | 0.00 | 89 | 1018.7 |
| 20260906043012 | 18 | 26 | 1.6 | 4.8 | 0.00 | 0.00 | 0.00 | 88 | 1018.7 |
| 20260906042508 | 18 | 38 | 1.6 | 6.4 | 0.00 | 0.00 | 0.00 | 88 | 1018.6 |
| 20260906042010 | 18 | 28 | 1.6 | 6.4 | 0.00 | 0.00 | 0.00 | 88 | 1018.4 |
| 20260906041525 | 18 | 24 | 3.2 | 6.4 | 0.00 | 0.00 | 0.00 | 88 | 1018.4 |
| 20260906041012 | 18 | 25 | 1.6 | 6.4 | 0.00 | 0.00 | 0.00 | 87 | 1018.3 |
| 20260906040513 | 18 | 32 | 3.2 | 6.4 | 0.00 | 0.00 | 0.00 | 87 | 1018.3 |
| 20260906040036 | 18 | 44 | 3.2 | 4.8 | 0.00 | 0.00 | 0.00 | 87 | 1018.2 |
| 20260906035514 | 18 | 26 | 3.2 | 4.8 | 0.00 | 0.00 | 0.00 | 86 | 1018.2 |
| 20260906035016 | 18 | 9 | 3.2 | 8.0 | 0.00 | 0.00 | 0.00 | 86 | 1018.3 |
| 20260906034545 | 18 | 24 | 3.2 | 8.0 | 0.00 | 0.00 | 0.00 | 86 | 1018.3 |
| 20260906034014 | 18 | 35 | 3.2 | 6.4 | 0.00 | 0.00 | 0.00 | 86 | 1018.3 |
| 20260906033519 | 18 | 48 | 1.6 | 4.8 | 0.00 | 0.00 | 0.00 | 86 | 1018.2 |
| 20260906033033 | 18 | 41 | 1.6 | 4.8 | 0.00 | 0.00 | 0.00 | 86 | 1018.2 |
| 20260906032508 | 18 | 34 | 1.6 | 4.8 | 0.00 | 0.00 | 0.00 | 86 | 1018.3 |
| 20260906032008 | 18 | 19 | 1.6 | 6.4 | 0.00 | 0.00 | 0.00 | 86 | 1018.3 |
| 20260906031552 | 19 | 38 | 1.6 | 6.4 | 0.00 | 0.00 | 0.00 | 87 | 1018.3 |
| 20260906031012 | 19 | 9 | 1.6 | 4.8 | 0.00 | 0.00 | 0.00 | 87 | 1018.2 |
| 20260906030511 | 19 | 17 | 1.6 | 4.8 | 0.00 | 0.00 | 0.00 | 87 | 1018.2 |
| 20260906030026 | 19 | 11 | 1.6 | 8.0 | 0.00 | 0.00 | 0.00 | 87 | 1018.2 |
| 20260906025517 | 19 | 360 | 3.2 | 8.0 | 0.00 | 0.00 | 0.00 | 86 | 1018.2 |
| 20260906025015 | 19 | 25 | 1.6 | 8.0 | 0.00 | 0.00 | 0.00 | 86 | 1018.3 |
| 20260906024551 | 19 | 23 | 3.2 | 8.0 | 0.00 | 0.00 | 0.00 | 86 | 1018.2 |
| 20260906024017 | 19 | 26 | 1.6 | 6.4 | 0.00 | 0.00 | 0.00 | 86 | 1018.0 |
| 20260906023520 | 20 | 9 | 1.6 | 6.4 | 0.00 | 0.00 | 0.00 | 86 | 1018.0 |
| 20260906023029 | 20 | 22 | 1.6 | 12.9 | 0.00 | 0.00 | 0.00 | 85 | 1018.0 |
| 20260906022517 | 20 | 19 | 3.2 | 12.9 | 0.00 | 0.00 | 0.00 | 85 | 1017.9 |
| 20260906022014 | 20 | 19 | 4.8 | 12.9 | 0.00 | 0.00 | 0.00 | 85 | 1017.8 |
| 20260906021517 | 20 | 30 | 3.2 | 9.7 | 0.00 | 0.00 | 0.00 | 85 | 1017.8 |
| 20260906021008 | 20 | 15 | 3.2 | 9.7 | 0.00 | 0.00 | 0.00 | 85 | 1017.8 |
| 20260906020511 | 20 | 24 | 3.2 | 8.0 | 0.00 | 0.00 | 0.00 | 85 | 1017.8 |
| 20260906020023 | 20 | 352 | 1.6 | 6.4 | 0.00 | 0.00 | 0.00 | 85 | 1017.9 |
| 20260906015513 | 20 | 57 | 0.0 | 6.4 | 0.00 | 0.00 | 0.00 | 85 | 1017.9 |
| 20260906015012 | 20 | 5 | 1.6 | 6.4 | 0.00 | 0.00 | 0.00 | 85 | 1017.8 |
| 20260906014527 | 20 | 35 | 3.2 | 11.3 | 0.00 | 0.00 | 0.00 | 84 | 1017.7 |
| 20260906014015 | 20 | 24 | 4.8 | 11.3 | 0.00 | 0.00 | 0.00 | 83 | 1017.7 |
| 20260906013514 | 21 | 12 | 4.8 | 14.5 | 0.00 | 0.00 | 0.00 | 83 | 1017.7 |
| 20260906013033 | 21 | 19 | 6.4 | 14.5 | 0.00 | 0.00 | 0.00 | 82 | 1017.8 |
| 20260906012516 | 21 | 19 | 9.7 | 14.5 | 0.00 | 0.00 | 0.00 | 82 | 1017.8 |
| 20260906012016 | 21 | 35 | 8.0 | 17.7 | 0.00 | 0.00 | 0.00 | 83 | 1017.9 |
| 20260906011533 | 21 | 22 | 6.4 | 17.7 | 0.00 | 0.00 | 0.00 | 84 | 1017.9 |
| 20260906011019 | 21 | 28 | 8.0 | 14.5 | 0.00 | 0.00 | 0.00 | 84 | 1017.8 |
| 20260906010504 | 21 | 19 | 3.2 | 11.3 | 0.00 | 0.00 | 0.00 | 84 | 1018.0 |
| 20260906010026 | 21 | 46 | 4.8 | 11.3 | 0.00 | 0.00 | 0.00 | 84 | 1017.9 |
| 20260906005504 | 21 | 38 | 4.8 | 12.9 | 0.00 | 0.00 | 0.00 | 84 | 1017.9 |
| 20260906005002 | 21 | 29 | 3.2 | 12.9 | 0.00 | 0.00 | 0.00 | 83 | 1018.1 |
| 20260906004503 | 21 | 348 | 3.2 | 17.7 | 0.00 | 0.00 | 0.00 | 84 | 1018.0 |
| 20260906004003 | 21 | 322 | 6.4 | 17.7 | 0.00 | 0.00 | 0.00 | 83 | 1018.0 |
| 20260906003503 | 21 | 39 | 6.4 | 12.9 | 0.00 | 0.00 | 0.00 | 84 | 1018.0 |
| 20260906003007 | 21 | 9 | 6.4 | 12.9 | 0.00 | 0.00 | 0.00 | 84 | 1017.9 |
| 20260906002504 | 21 | 57 | 3.2 | 12.9 | 0.00 | 0.00 | 0.00 | 85 | 1017.9 |
| 20260906002005 | 21 | 32 | 6.4 | 16.1 | 0.00 | 0.00 | 0.00 | 84 | 1017.9 |
| 20260906001510 | 21 | 352 | 6.4 | 16.1 | 0.00 | 0.00 | 0.00 | 84 | 1017.9 |
| 20260906001004 | 21 | 33 | 6.4 | 16.1 | 0.00 | 0.00 | 0.00 | 84 | 1017.8 |
| 20260906000506 | 21 | 29 | 4.8 | 14.5 | 0.00 | 0.00 | 0.00 | 84 | 1017.8 |
| 20260906000012 | 21 | 39 | 8.0 | 14.5 | 0.00 | 0.00 | 0.00 | 84 | 1017.8 |
| 20260905235504 | 21 | 21 | 6.4 | 9.7 | 0.00 | 0.00 | 0.00 | 85 | 1017.8 |
| 20260905235003 | 21 | 18 | 4.8 | 11.3 | 0.00 | 0.00 | 0.00 | 84 | 1017.7 |
| 20260905234509 | 21 | 38 | 4.8 | 12.9 | 0.00 | 0.00 | 0.00 | 84 | 1017.7 |
| 20260905234003 | 22 | 22 | 4.8 | 12.9 | 0.00 | 0.00 | 0.00 | 84 | 1017.9 |
| 20260905233504 | 22 | 51 | 3.2 | 11.3 | 0.00 | 0.00 | 0.00 | 84 | 1017.9 |
| 20260905233005 | 22 | 28 | 6.4 | 12.9 | 0.00 | 0.00 | 0.00 | 83 | 1017.9 |
| 20260905232504 | 22 | 46 | 6.4 | 14.5 | 0.00 | 0.00 | 0.00 | 82 | 1017.9 |
| 20260905232004 | 22 | 27 | 8.0 | 14.5 | 0.00 | 0.00 | 0.00 | 82 | 1017.9 |
| 20260905231509 | 22 | 26 | 6.4 | 12.9 | 0.00 | 0.00 | 0.00 | 82 | 1017.9 |
| 20260905231005 | 22 | 44 | 8.0 | 12.9 | 0.00 | 0.00 | 0.00 | 81 | 1017.8 |
| 20260905230506 | 22 | 19 | 6.4 | 12.9 | 0.00 | 0.00 | 0.00 | 82 | 1017.7 |
| 20260905230024 | 22 | 15 | 6.4 | 12.9 | 0.00 | 0.00 | 0.00 | 82 | 1017.7 |
| 20260905225506 | 22 | 32 | 4.8 | 16.1 | 0.00 | 0.00 | 0.00 | 82 | 1017.5 |
| 20260905225006 | 22 | 352 | 3.2 | 16.1 | 0.00 | 0.00 | 0.00 | 82 | 1017.5 |
| 20260905224518 | 22 | 24 | 6.4 | 16.1 | 0.00 | 0.00 | 0.00 | 81 | 1017.4 |
| 20260905224003 | 22 | 96 | 3.2 | 12.9 | 0.00 | 0.00 | 0.00 | 82 | 1017.4 |
| 20260905223503 | 22 | 24 | 4.8 | 16.1 | 0.00 | 0.00 | 0.00 | 82 | 1017.6 |
| 20260905223006 | 22 | 352 | 4.8 | 16.1 | 0.00 | 0.00 | 0.00 | 81 | 1017.6 |
| 20260905222506 | 22 | 52 | 8.0 | 14.5 | 0.00 | 0.00 | 0.00 | 81 | 1017.5 |
| 20260905222003 | 23 | 53 | 3.2 | 14.5 | 0.00 | 0.00 | 0.00 | 81 | 1017.6 |
| 20260905221508 | 23 | 19 | 6.4 | 14.5 | 0.00 | 0.00 | 0.00 | 81 | 1017.5 |
| 20260905221005 | 23 | 9 | 4.8 | 14.5 | 0.00 | 0.00 | 0.00 | 82 | 1017.4 |
| 20260905220504 | 22 | 360 | 6.4 | 14.5 | 0.00 | 0.00 | 0.00 | 82 | 1017.3 |
| 20260905220012 | 22 | 32 | 4.8 | 12.9 | 0.00 | 0.00 | 0.00 | 82 | 1017.3 |
| 20260905215507 | 22 | 28 | 4.8 | 19.3 | 0.00 | 0.00 | 0.00 | 82 | 1017.2 |
| 20260905215007 | 22 | 13 | 11.3 | 19.3 | 0.00 | 0.00 | 0.00 | 81 | 1017.1 |
| 20260905214512 | 23 | 25 | 8.0 | 17.7 | 0.00 | 0.00 | 0.00 | 81 | 1017.1 |
| 20260905214007 | 23 | 17 | 9.7 | 17.7 | 0.00 | 0.00 | 0.00 | 81 | 1017.0 |
| 20260905213507 | 23 | 27 | 11.3 | 19.3 | 0.00 | 0.00 | 0.00 | 80 | 1017.2 |
| 20260905213011 | 23 | 17 | 9.7 | 24.1 | 0.00 | 0.00 | 0.00 | 81 | 1017.2 |
| 20260905212507 | 23 | 34 | 11.3 | 24.1 | 0.00 | 0.00 | 0.00 | 80 | 1017.1 |
| 20260905212003 | 23 | 53 | 12.9 | 22.5 | 0.00 | 0.00 | 0.00 | 80 | 1016.9 |
| 20260905211515 | 23 | 61 | 11.3 | 22.5 | 0.00 | 0.00 | 0.00 | 79 | 1017.0 |
| 20260905211003 | 24 | 34 | 9.7 | 22.5 | 0.00 | 0.00 | 0.00 | 78 | 1017.0 |
| 20260905210503 | 23 | 15 | 9.7 | 17.7 | 0.00 | 0.00 | 0.00 | 79 | 1017.1 |
| 20260905210010 | 23 | 10 | 8.0 | 17.7 | 0.00 | 0.00 | 0.00 | 79 | 1017.1 |
| 20260905205503 | 24 | 49 | 11.3 | 16.1 | 0.00 | 0.00 | 0.00 | 79 | 1017.0 |
| 20260905205006 | 24 | 19 | 4.8 | 16.1 | 0.00 | 0.00 | 0.00 | 79 | 1017.0 |
| 20260905204511 | 24 | 352 | 8.0 | 16.1 | 0.00 | 0.00 | 0.00 | 78 | 1017.1 |
| 20260905204007 | 24 | 37 | 9.7 | 17.7 | 0.00 | 0.00 | 0.00 | 79 | 1017.2 |
| 20260905203506 | 24 | 61 | 4.8 | 17.7 | 0.00 | 0.00 | 0.00 | 80 | 1017.2 |
| 20260905203015 | 24 | 5 | 6.4 | 19.3 | 0.00 | 0.00 | 0.00 | 79 | 1017.2 |
| 20260905202507 | 24 | 20 | 9.7 | 19.3 | 0.00 | 0.00 | 0.00 | 79 | 1017.2 |
| 20260905202006 | 24 | 339 | 6.4 | 19.3 | 0.00 | 0.00 | 0.00 | 79 | 1017.2 |
| 20260905201514 | 24 | 9 | 8.0 | 20.9 | 0.00 | 0.00 | 0.00 | 79 | 1017.2 |
| 20260905201003 | 24 | 12 | 11.3 | 20.9 | 0.00 | 0.00 | 0.00 | 78 | 1017.1 |
| 20260905200506 | 24 | 37 | 8.0 | 14.5 | 0.00 | 0.00 | 0.00 | 81 | 1017.1 |
| 20260905200009 | 23 | 46 | 4.8 | 17.7 | 0.00 | 0.00 | 0.00 | 81 | 1017.1 |
| 20260905195506 | 23 | 29 | 8.0 | 22.5 | 0.00 | 0.00 | 0.00 | 81 | 1017.1 |
| 20260905195005 | 24 | 62 | 12.9 | 22.5 | 0.00 | 0.00 | 0.00 | 80 | 1017.1 |
| 20260905194513 | 25 | 19 | 9.7 | 20.9 | 0.00 | 0.00 | 0.00 | 80 | 1017.1 |
| 20260905194008 | 25 | 115 | 6.4 | 17.7 | 0.00 | 0.00 | 0.00 | 78 | 1017.2 |
| 20260905193508 | 25 | 36 | 9.7 | 17.7 | 0.00 | 0.00 | 0.00 | 77 | 1017.2 |
| 20260905193015 | 25 | 24 | 9.7 | 17.7 | 0.00 | 0.00 | 0.00 | 76 | 1017.1 |
| 20260905192506 | 25 | 336 | 11.3 | 17.7 | 0.00 | 0.00 | 0.00 | 76 | 1017.1 |
| 20260905192008 | 25 | 352 | 9.7 | 19.3 | 0.00 | 0.00 | 0.00 | 76 | 1017.1 |
| 20260905191516 | 25 | 26 | 11.3 | 19.3 | 0.00 | 0.00 | 0.00 | 77 | 1017.1 |
| 20260905191008 | 25 | 51 | 4.8 | 19.3 | 0.00 | 0.00 | 0.00 | 76 | 1017.0 |
| 20260905190505 | 25 | 38 | 9.7 | 17.7 | 0.00 | 0.00 | 0.00 | 75 | 1017.0 |
| 20260905190008 | 26 | 32 | 8.0 | 17.7 | 0.00 | 0.00 | 0.00 | 76 | 1017.1 |
| 20260905185509 | 25 | 36 | 8.0 | 16.1 | 0.00 | 0.00 | 0.00 | 75 | 1017.2 |
| 20260905185005 | 26 | 49 | 4.8 | 12.9 | 0.00 | 0.00 | 0.00 | 75 | 1017.1 |
| 20260905184514 | 25 | 22 | 6.4 | 12.9 | 0.00 | 0.00 | 0.00 | 75 | 1017.1 |
| 20260905184006 | 25 | 360 | 6.4 | 11.3 | 0.00 | 0.00 | 0.00 | 75 | 1017.2 |
| 20260905183506 | 25 | 37 | 4.8 | 11.3 | 0.00 | 0.00 | 0.00 | 76 | 1017.1 |
| 20260905183024 | 25 | 43 | 6.4 | 11.3 | 0.00 | 0.00 | 0.00 | 75 | 1017.2 |
| 20260905182508 | 25 | 42 | 6.4 | 16.1 | 0.00 | 0.00 | 0.00 | 73 | 1017.2 |
| 20260905182008 | 25 | 44 | 8.0 | 19.3 | 0.00 | 0.00 | 0.00 | 73 | 1017.1 |
| 20260905181517 | 26 | 39 | 6.4 | 19.3 | 0.00 | 0.00 | 0.00 | 72 | 1017.1 |
| 20260905181008 | 26 | 350 | 6.4 | 14.5 | 0.00 | 0.00 | 0.00 | 74 | 1017.1 |
| 20260905180507 | 25 | 31 | 8.0 | 14.5 | 0.00 | 0.00 | 0.00 | 74 | 1017.2 |
| 20260905180017 | 25 | 61 | 9.7 | 17.7 | 0.00 | 0.00 | 0.00 | 76 | 1017.2 |
| 20260905175509 | 25 | 28 | 6.4 | 17.7 | 0.00 | 0.00 | 0.00 | 77 | 1017.2 |
| 20260905175004 | 25 | 28 | 11.3 | 17.7 | 0.00 | 0.00 | 0.00 | 75 | 1017.3 |
| 20260905174509 | 25 | 28 | 6.4 | 19.3 | 0.00 | 0.00 | 0.00 | 74 | 1017.2 |
| 20260905174004 | 25 | 9 | 8.0 | 19.3 | 0.00 | 0.00 | 0.00 | 73 | 1017.2 |
| 20260905173508 | 26 | 51 | 6.4 | 16.1 | 0.00 | 0.00 | 0.00 | 73 | 1017.2 |
| 20260905173041 | 25 | 11 | 4.8 | 16.1 | 0.00 | 0.00 | 0.00 | 75 | 1017.2 |
| 20260905172508 | 26 | 38 | 8.0 | 17.7 | 0.00 | 0.00 | 0.00 | 74 | 1017.2 |
| 20260905172008 | 25 | 360 | 8.0 | 17.7 | 0.00 | 0.00 | 0.00 | 74 | 1017.3 |
| 20260905171518 | 25 | 44 | 6.4 | 17.7 | 0.00 | 0.00 | 0.00 | 74 | 1017.3 |
| 20260905171010 | 25 | 21 | 4.8 | 16.1 | 0.00 | 0.00 | 0.00 | 76 | 1017.2 |
| 20260905170510 | 25 | 21 | 9.7 | 16.1 | 0.00 | 0.00 | 0.00 | 77 | 1017.2 |
| 20260905170019 | 25 | 117 | 6.4 | 14.5 | 0.00 | 0.03 | 0.00 | 78 | 1017.3 |
| 20260905165509 | 25 | 15 | 8.0 | 14.5 | 0.00 | 0.03 | 0.00 | 79 | 1017.3 |
| 20260905165009 | 25 | 29 | 4.8 | 11.3 | 0.00 | 0.03 | 0.00 | 80 | 1017.3 |
| 20260905164506 | 24 | 15 | 4.8 | 9.7 | 0.00 | 0.03 | 0.00 | 80 | 1017.2 |
| 20260905164008 | 24 | 9 | 3.2 | 14.5 | 0.00 | 0.03 | 0.00 | 80 | 1017.3 |
| 20260905163505 | 24 | 352 | 3.2 | 14.5 | 0.00 | 0.03 | 0.00 | 79 | 1017.3 |
| 20260905163014 | 24 | 40 | 4.8 | 11.3 | 0.00 | 0.03 | 0.00 | 79 | 1017.3 |
| 20260905162508 | 25 | 31 | 3.2 | 8.0 | 0.00 | 0.03 | 0.00 | 79 | 1017.3 |
| 20260905162006 | 25 | 36 | 1.6 | 8.0 | 0.00 | 0.03 | 0.00 | 80 | 1017.2 |
| 20260905161521 | 24 | 22 | 3.2 | 8.0 | 0.00 | 0.03 | 0.00 | 81 | 1017.2 |
| 20260905161011 | 23 | 17 | 1.6 | 9.7 | 0.00 | 0.03 | 0.00 | 83 | 1017.2 |
| 20260905160508 | 23 | 23 | 4.8 | 14.5 | 0.00 | 0.03 | 0.00 | 83 | 1017.3 |
| 20260905160025 | 23 | 18 | 6.4 | 14.5 | 0.00 | 0.03 | 0.00 | 83 | 1017.3 |
| 20260905155513 | 23 | 15 | 4.8 | 14.5 | 0.00 | 0.03 | 0.00 | 83 | 1017.3 |
| 20260905155014 | 23 | 25 | 6.4 | 14.5 | 0.00 | 0.03 | 0.00 | 82 | 1017.2 |
| 20260905154523 | 23 | 5 | 3.2 | 14.5 | 0.00 | 0.03 | 0.00 | 83 | 1017.2 |
| 20260905154015 | 23 | 42 | 8.0 | 14.5 | 0.00 | 0.03 | 0.00 | 82 | 1017.2 |
| 20260905153504 | 23 | 27 | 4.8 | 16.1 | 0.00 | 0.03 | 0.00 | 82 | 1017.1 |
| 20260905153011 | 24 | 42 | 6.4 | 16.1 | 0.00 | 0.03 | 0.00 | 81 | 1017.2 |
| 20260905152510 | 23 | 360 | 3.2 | 8.0 | 0.00 | 0.03 | 0.00 | 85 | 1017.2 |
| 20260905152007 | 22 | 22 | 3.2 | 8.0 | 0.00 | 0.03 | 0.00 | 89 | 1017.2 |
| 20260905151519 | 22 | 38 | 3.2 | 4.8 | 0.00 | 0.05 | 0.00 | 90 | 1017.2 |
| 20260905151012 | 21 | 346 | 1.6 | 12.9 | 0.00 | 0.08 | 0.00 | 90 | 1017.1 |
| 20260905150512 | 21 | 41 | 4.8 | 12.9 | 0.00 | 0.20 | 0.00 | 90 | 1017.1 |
| 20260905150024 | 21 | 17 | 4.8 | 12.9 | 0.00 | 0.79 | 0.00 | 90 | 1017.1 |
| 20260905145510 | 21 | 31 | 4.8 | 14.5 | 0.00 | 1.07 | 0.00 | 91 | 1017.0 |
| 20260905145009 | 21 | 37 | 4.8 | 16.1 | 0.00 | 1.09 | 0.00 | 91 | 1016.8 |
| 20260905144526 | 21 | 66 | 9.7 | 16.1 | 0.00 | 1.09 | 0.00 | 91 | 1016.8 |
| 20260905144009 | 21 | 49 | 6.4 | 12.9 | 0.00 | 1.09 | 0.00 | 91 | 1016.8 |
| 20260905143509 | 21 | 16 | 3.2 | 12.9 | 0.00 | 1.09 | 0.00 | 91 | 1016.8 |
| 20260905143029 | 21 | 28 | 6.4 | 16.1 | 0.00 | 1.09 | 0.00 | 91 | 1016.7 |
| 20260905142504 | 21 | 55 | 6.4 | 20.9 | 0.00 | 1.09 | 0.00 | 91 | 1016.5 |
| 20260905142004 | 21 | 41 | 11.3 | 20.9 | 0.00 | 1.09 | 0.00 | 91 | 1016.3 |
| 20260905141525 | 21 | 360 | 8.0 | 16.1 | 0.00 | 1.09 | 0.00 | 91 | 1016.4 |
| 20260905141006 | 21 | 200 | 3.2 | 12.9 | 0.00 | 1.09 | 0.00 | 92 | 1016.4 |
| 20260905140511 | 21 | 34 | 6.4 | 12.9 | 0.00 | 1.09 | 0.00 | 92 | 1016.2 |
| 20260905140024 | 21 | 37 | 4.8 | 12.9 | 0.00 | 1.09 | 0.00 | 92 | 1016.3 |
| 20260905135509 | 21 | 17 | 4.8 | 12.9 | 0.00 | 1.09 | 0.00 | 93 | 1016.4 |
| 20260905135014 | 21 | 22 | 4.8 | 11.3 | 0.00 | 1.09 | 0.00 | 93 | 1016.4 |
| 20260905134532 | 21 | 17 | 3.2 | 12.9 | 0.00 | 1.09 | 0.00 | 93 | 1016.4 |
| 20260905134011 | 21 | 19 | 6.4 | 12.9 | 0.00 | 1.09 | 0.00 | 93 | 1016.3 |
| 20260905133512 | 21 | 35 | 4.8 | 12.9 | 0.00 | 1.09 | 0.00 | 93 | 1016.4 |
| 20260905133024 | 21 | 24 | 6.4 | 14.5 | 0.00 | 1.32 | 0.00 | 93 | 1016.4 |
| 20260905132513 | 21 | 24 | 6.4 | 14.5 | 0.00 | 1.32 | 0.00 | 94 | 1016.4 |
| 20260905132012 | 21 | 32 | 4.8 | 11.3 | 0.00 | 1.32 | 0.00 | 94 | 1016.4 |
| 20260905131518 | 21 | 32 | 4.8 | 11.3 | 0.00 | 1.32 | 0.00 | 94 | 1016.5 |